Location: Ponte di Via Levata
(44.8333°N, 10.6833°E)
Time: 09:54:22
(UTC+00:00)

Daily predictions for brighter satellites

Satellite Brightness Start Highest point End
(mag) Time Altitude Azimuth Time Altitude Azimuth Time Altitude Azimuth
Cosmos 1464 Rocket 4.1 16:02:36 10° S 16:08:58 85° E 16:15:24 10° N
Cosmos 1340 Rocket 3.0 16:06:57 10° N 16:10:57 53° ENE 16:14:57 10° SSE
SJ 16-02 2.8 16:07:15 10° NNW 16:11:24 42° WSW 16:15:32 10° S
CZ-4C R/B 4.0 16:07:46 10° N 16:11:34 54° WNW 16:15:10 10° SSW
ISS -2.5 16:11:01 10° NW 16:14:00 28° N 16:17:00 10° ENE
Cosmos 1606 3.2 16:12:05 10° SSW 16:15:48 61° W 16:19:33 10° N
CZ-2D R/B 4.4 16:13:17 10° ESE 16:16:20 23° ENE 16:19:24 10° NNE
Lacrosse 5 rocket 3.1 16:15:53 10° NNW 16:18:14 15° NNE 16:20:38 10° NE
Nadezhda 4 Rocket 4.0 16:12:26 10° N 16:18:47 77° E 16:25:07 10° SSE
CZ-4B R/B 4.1 16:15:05 10° ESE 16:19:24 25° ENE 16:23:41 10° N
Cosmos 2360 4.5 16:15:56 10° NNW 16:21:29 47° ENE 16:26:59 10° SE
Cosmos 540 Rocket 4.1 16:18:16 10° SSE 16:22:54 36° ESE 16:27:33 10° NE
Meteor 1-20 Rocket 4.4 16:17:17 10° N 16:23:03 59° ENE 16:28:49 10° SSE
CZ-2C R/B 3.8 16:20:03 10° NE 16:23:55 21° E 16:27:45 10° SE
Cosmos 1500 Rocket 3.6 16:19:45 10° N 16:24:11 63° E 16:28:32 10° SSE
CZ-4C R/B 3.5 16:18:16 10° NNW 16:24:31 34° NE 16:31:46 10° E
CZ-4B R/B 3.0 16:22:18 10° S 16:26:25 78° WSW 16:30:19 10° NNW
SMAP 3.0 16:23:29 10° SSE 16:28:05 64° ENE 16:32:42 10° N
Cosmos 1500 4.1 16:26:31 10° NNE 16:29:40 25° ENE 16:32:47 10° SE
USA 305 4.4 16:26:13 10° WNW 16:29:42 24° N 16:32:56 11° NE
CZ-2C R/B 3.3 16:25:18 10° S 16:30:14 71° WSW 16:35:01 10° NNW
Cosmos 468 Rocket 3.9 16:27:25 10° SSW 16:32:32 75° ESE 16:37:44 10° NNE
Cosmos 1092 Rocket 4.1 16:27:15 10° N 16:33:33 60° ENE 16:39:47 10° SSE
Cosmos 1898 Rocket 3.4 16:30:00 10° NNW 16:35:15 68° ENE 16:40:25 10° SSE
Cosmos 44 4.3 16:31:08 10° NW 16:35:42 49° WSW 16:40:00 10° SSE
Cosmos 1805 Rocket 3.7 16:31:30 10° N 16:35:43 49° ENE 16:39:55 10° SSE
Cosmos 1933 3.4 16:31:51 10° S 16:35:48 54° E 16:39:45 10° NNE
Sich 1 3.4 16:32:20 10° N 16:36:22 38° ENE 16:40:24 10° SE
Cosmos 1842 Rocket 4.4 16:34:09 10° SSW 16:38:31 54° WNW 16:42:56 10° N
Cosmos 2221 3.6 16:34:33 10° SSW 16:38:39 45° WNW 16:42:48 10° N
PSLV R/B 3.8 16:37:54 10° SSE 16:41:27 49° ENE 16:45:03 10° N
deb Chang Zheng 4 4.1 16:47:19 10° SE 16:51:13 35° ENE 16:55:08 10° N
AQUARIUS 4.2 16:47:12 10° SSE 16:51:42 87° W 16:56:13 10° NNW
Cosmos 2084 3.8 16:47:38 10° NW 16:51:56 72° SW 16:56:25 10° SSE
H-2A R/B 2.0 16:48:58 10° SSE 16:54:03 59° ENE 16:59:02 10° N
Cosmos 1627 Rocket 4.4 16:48:05 10° N 16:54:16 72° E 17:00:22 10° SSE
NOSS 2-2 (C) 4.4 16:53:24 10° NNW 16:58:29 57° NE 17:05:33 10° SE
Cosmos 1666 3.4 16:56:04 10° NNE 16:59:23 30° ENE 17:02:40 10° SE
Cosmos 2322 Rocket 3.8 16:56:48 10° N 17:00:05 15° NE 17:00:05 15° NE
Cosmos 2279 Rocket 4.2 16:55:30 10° SSE 17:01:22 46° E 17:07:15 10° NNE
USA 306 4.4 16:58:36 10° NW 17:02:02 23° N 17:03:44 18° NNE
USA 267 3.7 16:58:13 14° NE 17:03:43 55° NNW 17:10:03 10° WSW
Cosmos 1697 Rocket 2.8 16:58:10 10° NNW 17:03:49 80° WSW 17:09:25 10° SSE
Cosmos 2369 3.6 17:01:27 10° NNW 17:07:13 75° ENE 17:12:55 10° SSE
Cosmos 1763 Rocket 4.2 17:02:32 10° SW 17:07:28 53° WNW 17:12:29 10° NNE
Cosmos 1980 Rocket 2.2 17:02:05 10° NNW 17:07:43 60° ENE 17:13:16 10° SE
Cosmos 1939 Rocket 4.3 17:04:01 10° S 17:07:56 42° W 17:11:50 10° NNW
COSMO-SKYMED 1 2.8 17:05:08 15° NNE 17:08:31 47° E 17:12:42 10° S
MOS 1-B Rocket 4.0 17:02:52 10° NNE 17:08:45 69° ESE 17:15:26 10° S
Meteor 1-5 Rocket 4.5 17:04:03 10° N 17:09:52 50° ENE 17:15:35 10° SSE
SL-24 R/B - RUBIN 2 3.5 17:08:04 10° NNW 17:12:35 60° NE 17:15:48 17° SE
Cosmos 841 Rocket 3.4 17:07:41 10° SSW 17:12:50 78° ESE 17:17:15 14° NNE
Meteor 2-21 4.4 17:07:16 10° N 17:13:23 88° E 17:19:26 10° S
Cosmos 1812 2.7 17:10:44 10° S 17:14:29 55° E 17:16:31 25° NNE
Cosmos 1937 Rocket 3.7 17:11:27 10° NNW 17:16:47 74° WSW 17:22:04 10° SSE
Cosmos 1634 Rocket 4.0 17:10:33 10° S 17:16:53 87° WNW 17:23:16 10° N
SL-16 R/B 3.3 17:12:58 10° N 17:17:26 24° NE 17:17:26 24° NE
YAOGAN 1 4.5 17:22:20 15° NNE 17:22:20 15° NNE 17:23:19 10° N
Cosmos 1633 Rocket 3.1 17:15:25 10° N 17:19:41 50° ENE 17:23:57 10° SSE
Cosmos 2082 Rocket 2.1 17:14:46 10° SSW 17:20:26 73° ESE 17:24:27 20° NNE
USA 307 4.3 17:16:57 10° NW 17:20:27 24° N 17:21:20 22° NNE
USA 229 DEB 4.4 17:14:31 10° NW 17:21:49 63° WSW 17:29:31 10° SSE
USA 229 4.4 17:14:37 10° NW 17:21:55 63° WSW 17:29:37 10° SSE
Cosmos 2026 Rocket 4.2 17:19:05 10° NNW 17:25:12 70° W 17:31:12 10° S
Okean O Rocket 1.5 17:24:30 10° SSE 17:28:56 72° ENE 17:33:23 10° N
USA 276 4.4 17:28:08 10° W 17:30:42 23° SW 17:32:47 13° S
Cosmos 372 Rocket 4.0 17:25:51 10° NNW 17:31:07 86° WSW 17:36:22 10° SSE
Cosmos 2278 3.6 17:25:59 10° NNW 17:31:41 67° ENE 17:37:20 10° SE
SKYMED 3 4.4 17:29:31 19° NNE 17:32:39 86° E 17:37:00 10° SSW
Cosmos 1151 Rocket 2.9 17:31:03 10° S 17:35:22 88° E 17:38:08 22° N
Cosmos 1782 3.8 17:31:39 10° SSW 17:35:30 46° WNW 17:39:22 10° N
USA 234 4.0 17:30:47 10° SSE 17:37:08 53° SW 17:43:31 10° WNW
Cosmos 1655 Rocket 4.1 17:31:33 10° N 17:37:47 51° ENE 17:43:56 10° SSE
COSMOS 2406 3.9 17:32:38 10° SW 17:38:15 52° WNW 17:43:05 14° NNE
COSMOS 2455 3.0 17:34:05 10° SW 17:40:06 74° NW 17:43:55 24° NNE
Meteor 2-15 4.4 17:35:19 10° S 17:41:16 57° E 17:45:42 19° NNE
ARGOS 3.1 17:37:10 10° SSE 17:42:36 87° WSW 17:48:03 10° NNW
USA 308 4.4 17:39:33 10° NW 17:42:51 24° N 17:42:51 24° N
Cosmos 1666 Rocket 3.8 17:40:08 10° NNW 17:44:35 72° W 17:48:57 10° S
Cosmos 1833 Rocket 4.0 17:39:46 10° WSW 17:44:56 37° NW 17:49:48 12° N
Cosmos 2180 Rocket 4.4 17:41:22 10° S 17:47:42 80° E 17:54:00 10° N
Meteor 2-6 Rocket 4.1 17:43:43 10° S 17:49:30 80° E 17:53:26 21° NNE
Cosmos 1328 Rocket 3.4 17:45:16 10° S 17:49:43 88° E 17:50:52 50° N
ISS -2.7 17:47:47 10° WNW 17:50:10 42° NW 17:50:10 42° NW
DMSP B5D2-2 4.3 17:57:01 50° SE 17:57:01 50° SE 18:01:20 10° S
SKYMED 2 4.3 17:53:44 20° N 17:56:35 53° WNW 18:00:48 10° SSW
Lacrosse 5 rocket 2.9 17:54:30 10° NW 17:56:30 25° NNW 17:56:30 25° NNW
NOAA 15 4.4 17:53:59 10° SSE 17:59:15 74° ENE 18:04:33 10° N
CZ-4B R/B 4.0 17:54:23 10° S 17:59:39 50° W 18:04:53 10° NNW
Cosmos 1570 Rocket 4.0 17:55:03 10° SSW 18:00:17 78° WNW 18:02:05 42° N
Meteor 2-8 Rocket 4.4 17:54:43 10° S 18:00:53 85° W 18:07:05 10° N
Landsat 5 3.7 18:00:26 58° NNW 18:00:58 65° WNW 18:04:55 10° SSW
Cosmos 2298 Rocket 4.4 17:56:16 10° NNW 18:00:27 49° NNE 18:00:27 49° NNE
ATLAS CENTAUR R/B 3.4 17:54:46 10° WSW 18:02:12 37° NW 18:03:22 32° N
SL-08 RB Rocket 3.8 17:57:50 10° S 18:02:29 76° WSW 18:07:07 10° NNW
GEOS 3 Rocket 3.5 18:02:08 69° E 18:02:34 73° NE 18:07:45 10° NW
CZ-2C R/B 3.9 18:02:37 10° S 18:02:58 11° S 18:02:58 11° S
CZ-2C R/B 3.2 17:59:29 10° N 18:04:32 53° WNW 18:09:33 10° SW
DMSP 5D-2 F-14 4.5 18:02:11 34° SSE 18:04:37 76° ENE 18:10:04 10° NNW
Meteor 1-10 Rocket 4.1 18:01:46 10° S 18:07:34 82° E 18:09:02 52° NNE
Cosmos 1814 Rocket 4.5 18:02:54 10° SW 18:08:04 58° WNW 18:10:08 34° N
Meteor 1-11 Rocket 4.0 18:03:33 10° N 18:07:51 51° NNE 18:07:51 51° NNE
Cosmos 1818 3.6 18:04:01 10° NNW 18:09:03 67° NNE 18:09:03 67° NNE
Cosmos 44 Rocket 4.0 18:08:20 10° NNW 18:11:47 44° NNW 18:11:47 44° NNW
CZ-4C R/B 3.0 18:06:27 10° NW 18:13:49 80° SW 18:20:11 20° SSE
Cosmos 2360 Rocket 4.1 18:20:44 10° N 18:22:13 17° N 18:22:13 17° N
Cosmos 2322 Rocket 3.7 18:39:29 10° NNW 18:41:55 26° NNW 18:41:55 26° NNW
USA 267 4.3 18:45:34 32° N 18:45:56 32° N 18:51:34 10° WNW
Cosmos 1980 Rocket 4.5 18:47:02 10° NW 18:51:13 22° W 18:55:22 10° SSW
SL-16 R/B 3.7 18:56:29 10° NNW 18:59:20 30° NW 18:59:20 30° NW
Cosmos 2082 Rocket 4.2 19:00:49 10° W 19:05:07 22° NW 19:06:20 20° NNW
